Preview of NWS' New Version of Forecast
This preview is not operational and should not be used for support decisions.

Regional Weather Roundup (RWR)

Issued by National Weather Service (NWS)

                            
000
ASUS46 KSEW 171010
RWRWA 

WASHINGTON REGIONAL WEATHER ROUNDUP
NATIONAL WEATHER SERVICE SEATTLE WA
300 AM PDT WED APR 17 2019

NOTE:"FAIR" INDICATES FEW OR NO CLOUDS BELOW 12,000 FEET WITH NO 
SIGNIFICANT WEATHER AND/OR OBSTRUCTIONS TO VISIBILITY.

WAZ507-509-555>559-171100-
SEATTLE, TACOMA, EVERETT, AND VICINITY
  
CITY           SKY/WX    TMP DP  RH WIND       PRES   REMARKS
EVERETT        CLOUDY    48  44  86 S12G23    30.16R                  
BOEING FIELD   CLOUDY    50  44  80 S13       30.19S                  
RENTON         CLOUDY    50  47  89 VRB3      30.20R                  
SEATAC AIRPORT CLOUDY    49  45  86 S10       30.19R                  
JBLM-MCCHORD   CLOUDY    49  49 100 S8        30.20S                  
PUYALLUP       CLOUDY    48  46  93 S5        30.21S                  
BREMERTON      MOCLDY    47  45  93 SW15      30.17S                  
JBLM-FT LEWIS  CLOUDY    49  49 100 S8        30.20S                  
TACOMA NARROWS CLOUDY    48  45  89 S10       30.19S                  
$$
 
WAZ001-503-506-510-514-515-171100-
NORTH INTERIOR
  
CITY           SKY/WX    TMP DP  RH WIND       PRES   REMARKS
BELLINGHAM     LGT RAIN  49  45  86 S6        30.16R                  
FRIDAY HARBOR  CLOUDY    48  45  89 CALM      30.17R                  
EASTSOUND      CLOUDY    48  46  93 S8        30.15R                  
PORT ANGELES   FAIR      45  43  93 CALM      30.17R                  
EDIZ HOOK      PTSUNNY   47  44  87 CALM      30.17R                  
PORT TOWNSEND  CLOUDY    48  46  93 CALM      30.16R                  
NAS WHIDBEY    CLOUDY    50  45  83 CALM      30.20R                  
ARLINGTON      LGT RAIN  49  46  90 S5        30.18R                  
BURLINGTON     CLOUDY    48  46  93 CALM      30.17R                  
$$
 
WAZ020-022-039-040-504-511-512-171100-
SOUTHWEST INTERIOR
  
CITY           SKY/WX    TMP DP  RH WIND       PRES   REMARKS
SHELTON        LGT RAIN  48  45  89 SW12      30.18S FOG              
OLYMPIA        LGT RAIN  48  46  93 S7        30.21S                  
CHEHALIS       CLOUDY    48  48 100 CALM      30.23S                  
KELSO          CLOUDY    50  49  96 CALM      30.25S                  
VANCOUVER      CLOUDY    51  46  83 CALM      30.24R                  
SCAPPOOSE, OR  CLOUDY    51  48  89 CALM      30.24R                  
PORTLAND, OR   DRIZZLE   51  46  83 S3        30.25R                  
$$
 
WAZ021-516-517-171100-
WASHINGTON COAST
  
CITY           SKY/WX    TMP DP  RH WIND       PRES   REMARKS
FORKS          LGT RAIN  47  46  97 S6        30.16S FOG              
HOQUIAM        CLOUDY    49  49 100 SW10      30.21S FOG              
ASTORIA, OR    CLOUDY    49  46  90 SW8       30.22S                  
$$
 
WAZ019-023-024-040-567>569-171100-
CASCADE MOUNTAINS AND COLUMBIA GORGE
  
CITY           SKY/WX    TMP DP  RH WIND       PRES   REMARKS
STAMPEDE PASS  MIX PCPN  36  33  89 W12G28    30.09R FOG              
TROUTDALE, OR  CLOUDY    51  47  86 CALM      30.25R                  
HOOD RIVER, OR CLOUDY    50  43  76 MISG      30.19R                  
THE DALLES, OR CLOUDY    52  42  69 NW16G25   30.16R                  
$$

WAZ026-027-041>044-520-521-171100-
EAST SLOPES
  
CITY           SKY/WX    TMP DP  RH WIND       PRES   REMARKS
OMAK           CLOUDY    50  34  54 S8        30.00S                  
WENATCHEE      MOCLDY    46  36  68 VRB3      30.06R                  
ELLENSBURG     CLOUDY    47  38  71 NW18      30.09R                  
YAKIMA         FAIR      46  36  68 S3        30.10R                  
SUNNYSIDE ARPT PTSUNNY   50  38  65 CALM      30.10                   
YAKIMA TC      FAIR      44  36  71 E6        30.08R                  
$$

WAZ028-034-035-171100-
COLUMBIA BASIN
  
CITY           SKY/WX    TMP DP  RH WIND       PRES   REMARKS
EPHRATA        FAIR      44  36  73 NE6       30.05R                  
MOSES LAKE     FAIR      52  37  56 W13       30.06R                  
PASCO          MOCLDY    56  39  53 SW12      30.11R                  
RICHLAND ARPT  FAIR      52  41  64 W7        30.11                   
HERMISTON, OR  FAIR      53  41  63 SW14      30.12R                  
$$

WAZ036>038-171100-
NORTHEAST WASHINGTON
  
CITY           SKY/WX    TMP DP  RH WIND       PRES   REMARKS
SPOKANE GEIGER LGT RAIN  46  37  71 SW12      30.04R                  
SPOKANE FELTS  CLOUDY    48  39  71 SW5       30.05R                  
FAIRCHILD AFB  NOT AVBL                                               
COEURDALENE,ID LGT RAIN  46  39  76 SW10      30.05R                  
DEER PARK      CLOUDY    46  38  73 S10       30.03R                  
$$

WAZ029>033-171100-
SOUTHEAST WASHINGTON
  
CITY           SKY/WX    TMP DP  RH WIND       PRES   REMARKS
PULLMAN        CLOUDY    47  38  71 SW13      30.11R                  
LEWISTON, ID   CLOUDY    49  42  77 CALM      30.09R                  
WALLA WALLA    CLOUDY    52  41  66 SW12      30.12R                  
PENDLETON, OR  CLOUDY    49  40  71 SW5       30.12R                  
$$